[[{"header":{"parameterUnit":"m.s-1","parameterCategory":1,"la1":30.2991,"la2":30.254,"lo1":-89.0895,"lo2":-89.0444,"dy":0.0017,"dx":0.0017,"nx":28,"ny":28,"refTime":"2025-03-13T21:00:00:Z","depth":0,"parameterNumber":2,"parameterNumberName":"U-component_of_WINDS"},"data":[0,0,0,0,0,0,0,0,0,0,0,0,0,0,0,0,0,0,0,0,0,0,0,0,0,0,0,0,0,0,0,0,0,0,0,0,0,0,0,0,0,0,0,0,0,0,0,0,0,0,0,0,0,0,0,0,0,0,-1.9788,-1.9789,0,-1.9923,-1.9925,-1.9926,-2.001,-2.0011,-2.0011,-2.0011,-2.015,-2.0153,-2.0157,0,0,0,0,0,0,0,0,0,0,0,0,0,-1.9601,-1.9604,-1.9787,-1.9789,-1.9791,-1.9923,-1.9925,-1.9927,-2.001,-2.0011,-2.0011,-2.0012,-2.0149,-2.0153,-2.0157,0,0,0,0,0,0,0,0,0,0,0,0,0,-1.9704,-1.9605,-1.9787,-1.9848,-1.9855,-1.9922,-1.9925,-1.9927,-2.001,-2.0011,-2.0011,-2.0012,-2.0148,-2.0153,-2.0157,-2.0174,0,0,-2.0172,-2.0175,0,0,0,0,0,0,0,0,-1.9698,-1.9711,-1.9838,-1.9844,-1.9852,-1.995,-1.991,-2.001,-2.001,-1.9951,-2.0011,-2.0012,-2.0083,-2.0093,-2.0117,-2.0181,-2.0187,-2.0173,-2.0176,-2.0178,-2.0179,0,0,0,0,0,0,0,-1.9691,-1.9705,-1.9841,-1.984,-1.9848,-1.9869,-1.9885,-1.9929,-2.0012,-1.9956,-1.9963,-1.9978,-2.0087,-2.0112,-2.0121,-2.0189,-2.0173,-2.0177,-2.018,-2.0182,-2.0273,-2.0273,0,0,0,0,0,0,-1.9674,-1.9699,-1.9837,-1.9845,-1.9775,-1.9872,-1.9889,-1.9918,-2.0012,-2.0026,-1.9977,-1.9981,-2.0104,-2.0115,-2.0126,-2.0153,-2.0178,-2.0183,-2.0185,-2.0274,-2.0273,-2.0273,0,0,0,0,0,0,-1.967,-1.9685,-1.9831,-1.9774,-1.9794,-1.9875,-1.9906,-1.992,-1.9946,-2.0027,-2.0042,-1.9988,-2.0105,-2.012,-2.0162,-2.0159,-2.0185,-2.0189,-2.0275,-2.0274,-2.0273,-2.0204,0,0,0,0,0,0,-1.9664,-1.9683,-1.969,-1.9773,-1.9797,-1.9864,-1.9906,-1.9923,-1.9954,-1.9961,-2.0041,-2.0055,-2.0106,-2.0154,-2.0167,-2.0166,-2.0193,-2.0275,-2.0274,-2.0273,-2.0207,-2.0201,-2.0196,0,0,0,0,0,-1.9657,-1.9666,-1.969,-1.9707,-1.9807,-1.9864,-1.9877,-1.9936,-1.9953,-1.9961,-2.0014,-2.0052,-2.0157,-2.0158,-2.0173,-2.0173,-2.0276,-2.0275,-2.0273,-2.021,-2.0203,-2.0196,0,0,0,0,0,0,-1.958,-1.9678,-1.9706,-1.9742,-1.9794,-1.9878,-1.989,-1.9927,-1.9975,-1.9979,-2.005,-2.0068,-2.0103,-2.0143,-2.0142,-2.0195,-2.0221,-2.0223,-2.0167,-2.0161,-2.0156,-2.0145,-2.0197,0,0,0,0,0,-1.9567,-1.9605,-1.9688,-1.9712,-1.9736,-1.9808,-1.9835,-1.9876,-1.9933,-1.9955,-2.0011,-2.0064,-2.011,-2.0138,-2.0184,-2.0214,-2.0233,-2.0221,-2.0216,-2.0211,-2.0211,-2.0231,-2.0227,-2.0269,-2.0269,-2.0269,0,0,-1.9541,-1.9599,-1.9619,-1.9698,-1.9743,-1.978,-1.9826,-1.9864,-1.9892,-1.9961,-2.0004,-2.0047,-2.0112,-2.0148,-2.0167,-2.0182,-2.0204,-2.0209,-2.0205,-2.0208,-2.0229,-2.0225,-2.0221,-2.0268,-2.0268,-2.0268,0,0,-1.9513,-1.956,-1.9585,-1.963,-1.9698,-1.9745,-1.9751,-1.983,-1.9861,-1.9905,-1.9958,-1.9993,-2.0069,-2.0113,-2.0145,-2.0134,-2.0172,-2.0147,-2.0118,-2.0136,-2.0133,-2.013,-2.0126,-2.0124,-2.0147,-2.0147,-2.0147,0,-1.9472,-1.953,-1.9593,-1.9628,-1.9661,-1.9726,-1.9751,-1.9791,-1.9871,-1.9892,-1.9908,-2.0005,-2.0053,-2.0101,-2.0098,-2.0122,-2.0131,-2.0138,-2.0128,-2.0126,-2.0124,-2.0121,-2.012,-2.0144,-2.0144,-2.0145,-2.0145,0,-1.9476,-1.9516,-1.9528,-1.9603,-1.9638,-1.9668,-1.9736,-1.9763,-1.9801,-1.9847,-1.9892,-1.9952,-2.0012,-2.0026,-2.0064,-2.0079,-2.0087,-2.0114,-2.0142,-2.0116,-2.0114,-2.0114,-2.0139,-2.014,-2.0141,-2.0142,0,0,-1.9403,-1.9512,-1.9516,-1.9551,-1.9631,-1.9663,-1.9696,-1.9754,-1.9776,-1.9829,-1.9858,-1.9922,-1.9948,-1.9984,-2.0028,-2.0043,-2.0031,-2.0069,-2.0072,-2.006,-2.0052,-2.003,-2.0027,-2.0056,-2.0056,-2.0056,-2.0046,0,-1.9386,-1.9448,-1.9506,-1.9548,-1.9585,-1.9647,-1.9676,-1.9728,-1.9772,-1.9811,-1.986,-1.9903,-1.9935,-1.9957,-1.9976,-2.0028,-2.003,-2.003,-2.0084,-2.0086,-2.0066,-2.0027,-2.0004,-1.9991,-2.0046,-2.0046,-2.0046,0,-1.9374,-1.9424,-1.9469,-1.9546,-1.9564,-1.9589,-1.9647,-1.9683,-1.9743,-1.9775,-1.9815,-1.9861,-1.9899,-1.9923,-1.9977,-1.9975,-2.0002,-2.0031,-2.0032,-2.0039,-2.0064,-2.0032,-1.9989,-1.9987,-2.0045,-2.0045,-2.0045,0,-1.9316,-1.9394,-1.9432,-1.946,-1.955,-1.9566,-1.9604,-1.9666,-1.9697,-1.9748,-1.9769,-1.9823,-1.9853,-1.9895,-1.9954,-1.9966,-2.0002,-2.003,-2.0029,-2.0027,-2.0033,-2.0031,-1.9992,-2.005,-2.005,-2.005,-2.005,0,-1.9291,-1.9316,-1.9407,-1.9429,-1.946,-1.9526,-1.9554,-1.9598,-1.9652,-1.9685,-1.9742,-1.9771,-1.9848,-1.9887,-1.9933,-1.9971,-1.9984,-2.001,-2.0022,-2.0005,-2.0002,-2.0023,-2.0025,-2.0049,-2.005,-2.005,-2.005,0,-1.923,-1.9292,-1.9337,-1.9418,-1.944,-1.9458,-1.9528,-1.9553,-1.96,-1.9641,-1.9654,-1.9729,-1.9778,-1.9841,-1.991,-1.9941,-1.9973,-1.9992,-1.9952,-1.9959,-1.9954,-1.9953,-1.9927,-1.9927,-1.9984,-1.9983,-1.9982,0,-1.921,-1.9231,-1.9315,-1.934,-1.9377,-1.9418,-1.945,-1.9517,-1.9548,-1.9619,-1.9635,-1.9688,-1.9734,-1.9809,-1.9869,-1.9922,-1.9943,-1.993,-1.9951,-1.9933,-1.9943,-1.994,-1.9943,-1.9924,-1.9923,-1.9923,-1.9922,0,-1.9167,-1.9197,-1.9241,-1.9296,-1.9333,-1.9379,-1.9429,-1.9447,-1.9524,-1.9556,-1.9606,-1.9642,-1.9712,-1.9764,-1.9825,-1.9865,-1.9906,-1.9915,-1.9917,-1.9899,-1.9876,-1.9888,-1.9938,-1.9915,-1.9916,-1.9916,-1.9917,-1.9917,-1.9126,-1.9148,-1.921,-1.9258,-1.9302,-1.9346,-1.9373,-1.9424,-1.9467,-1.953,-1.9567,-1.9615,-1.9676,-1.9762,-1.9801,-1.984,-1.9856,-1.9859,-1.986,-1.986,-1.9854,-1.9869,-1.9852,-1.9852,-1.9852,-1.9852,-1.9853,0,-1.9086,-1.913,-1.9173,-1.924,-1.9277,-1.9313,-1.9369,-1.9398,-1.944,-1.9493,-1.9537,-1.9595,-1.9646,-1.9711,-1.9766,-1.9785,-1.9806,-1.9798,-1.9797,-1.9805,-1.9837,-1.9829,-1.978,-1.978,-1.978,-1.978,-1.978,-1.978,-1.907,-1.9108,-1.9145,-1.9206,-1.9249,-1.9297,-1.9326,-1.9368,-1.9411,-1.9473,-1.9515,-1.9557,-1.9615,-1.9675,-1.9724,-1.9742,-1.9759,-1.9745,-1.9769,-1.9797,-1.9803,-1.9809,-1.9802,-1.9749,-1.9749,-1.9734,-1.9734,-1.9734]},{"header":{"parameterUnit":"m.s-1","parameterCategory":1,"la1":30.2991,"la2":30.254,"lo1":-89.0895,"lo2":-89.0444,"dy":0.0017,"dx":0.0017,"nx":28,"ny":28,"refTime":"2025-03-13T21:00:00:Z","depth":0,"parameterNumber":3,"parameterNumberName":"V-component_of_WINDS"},"data":[0,0,0,0,0,0,0,0,0,0,0,0,0,0,0,0,0,0,0,0,0,0,0,0,0,0,0,0,0,0,0,0,0,0,0,0,0,0,0,0,0,0,0,0,0,0,0,0,0,0,0,0,0,0,0,0,0,0,9.5298,9.5299,0,9.5447,9.5448,9.545,9.5445,9.5443,9.5441,9.5439,9.5584,9.559,9.5596,0,0,0,0,0,0,0,0,0,0,0,0,0,9.5004,9.5009,9.5297,9.5299,9.5301,9.5446,9.5448,9.545,9.5446,9.5443,9.5441,9.5439,9.5583,9.5589,9.5596,0,0,0,0,0,0,0,0,0,0,0,0,0,9.514,9.5011,9.5297,9.5317,9.532,9.5446,9.5449,9.5451,9.5446,9.5443,9.544,9.5437,9.558,9.5589,9.5597,9.5711,0,0,9.5624,9.5627,0,0,0,0,0,0,0,0,9.5132,9.5151,9.5312,9.5315,9.5319,9.5425,9.5398,9.5538,9.5447,9.5398,9.5439,9.5436,9.5533,9.5545,9.558,9.5718,9.5724,9.5624,9.563,9.5633,9.5636,0,0,0,0,0,0,0,9.5123,9.5144,9.5356,9.5314,9.5319,9.5316,9.5332,9.5425,9.5481,9.5402,9.5402,9.542,9.5535,9.5572,9.5583,9.5727,9.5624,9.5632,9.5637,9.564,9.597,9.5973,0,0,0,0,0,0,9.511,9.5136,9.5351,9.5361,9.5217,9.5324,9.5342,9.5394,9.548,9.549,9.5423,9.542,9.5558,9.5573,9.5588,9.5731,9.5633,9.5641,9.5646,9.5966,9.597,9.5974,0,0,0,0,0,0,9.5104,9.5129,9.5345,9.5249,9.5276,9.5333,9.5391,9.5398,9.5435,9.5495,9.5505,9.5451,9.5557,9.5576,9.5682,9.5735,9.5645,9.5653,9.5962,9.5967,9.5972,9.6014,0,0,0,0,0,0,9.5095,9.5127,9.5172,9.525,9.5281,9.5439,9.5394,9.5403,9.5451,9.5448,9.5524,9.5534,9.5556,9.567,9.5691,9.5746,9.566,9.5957,9.5964,9.5971,9.6008,9.602,9.6031,0,0,0,0,0,9.5085,9.5175,9.5174,9.52,9.5339,9.5442,9.5459,9.5485,9.5455,9.5501,9.554,9.5531,9.5726,9.568,9.5704,9.5763,9.5954,9.5962,9.597,9.6003,9.6018,9.603,0,0,0,0,0,0,9.5098,9.5186,9.5185,9.5304,9.5366,9.5441,9.5498,9.5499,9.5569,9.5563,9.5589,9.5607,9.5714,9.5748,9.5696,9.5879,9.5836,9.5849,9.5853,9.5868,9.5878,9.5868,9.5667,0,0,0,0,0,9.5116,9.5194,9.5265,9.5362,9.5394,9.5441,9.5486,9.5502,9.5566,9.5591,9.5637,9.5698,9.5774,9.5822,9.5894,9.6013,9.6031,9.6065,9.6076,9.6085,9.6096,9.6165,9.6182,9.6001,9.6001,9.6001,0,0,9.5151,9.5208,9.5255,9.5367,9.5416,9.5496,9.5463,9.5547,9.5606,9.5603,9.5708,9.5744,9.5813,9.5928,9.598,9.596,9.6151,9.6095,9.6102,9.6109,9.6175,9.6192,9.6207,9.6006,9.6005,9.6004,0,0,9.5257,9.5307,9.5396,9.5448,9.5525,9.5557,9.5578,9.5654,9.568,9.5786,9.5786,9.5855,9.5983,9.6034,9.6077,9.6206,9.6202,9.6229,9.6287,9.6353,9.6368,9.6381,9.6429,9.6446,9.624,9.624,9.624,0,9.529,9.5412,9.5441,9.5528,9.5578,9.5582,9.5673,9.572,9.5816,9.5849,9.5826,9.599,9.6037,9.6165,9.6197,9.623,9.6256,9.622,9.6364,9.6377,9.6389,9.6436,9.6454,9.6243,9.6242,9.6242,9.6242,0,9.5451,9.5535,9.5597,9.5695,9.5751,9.5838,9.588,9.5934,9.5945,9.5978,9.6087,9.6144,9.623,9.6261,9.627,9.6391,9.6377,9.6358,9.6315,9.6409,9.6453,9.6471,9.6247,9.6246,9.6245,9.6244,0,0,9.5567,9.5683,9.5705,9.5751,9.5838,9.5903,9.5991,9.6079,9.6125,9.6191,9.6266,9.6377,9.6362,9.6411,9.6426,9.6484,9.6587,9.6459,9.6461,9.6483,9.6726,9.674,9.676,9.6584,9.6587,9.659,9.672,0,9.5684,9.5844,9.5875,9.6013,9.6093,9.61,9.6177,9.6239,9.6273,9.6345,9.6381,9.6461,9.6434,9.6463,9.6521,9.6562,9.6636,9.6553,9.6654,9.6657,9.6638,9.6783,9.6798,9.6918,9.6738,9.6741,9.6743,0,9.584,9.5916,9.6064,9.6145,9.6179,9.6248,9.6333,9.6401,9.6471,9.6492,9.6549,9.6559,9.665,9.6604,9.6731,9.6674,9.6717,9.6743,9.6748,9.676,9.6706,9.68,9.6957,9.6975,9.677,9.6767,9.6766,0,9.5914,9.6051,9.6159,9.6198,9.6293,9.6343,9.6384,9.6452,9.6504,9.6576,9.661,9.6691,9.6736,9.6798,9.683,9.6792,9.6956,9.691,9.6976,9.6975,9.701,9.7008,9.7178,9.7035,9.7035,9.7035,9.7034,0,9.6042,9.6132,9.6194,9.626,9.6363,9.6397,9.6497,9.6537,9.6598,9.6672,9.6681,9.6749,9.6786,9.686,9.6885,9.6988,9.7007,9.7027,9.7032,9.7027,9.7025,9.7056,9.7049,9.704,9.7038,9.7038,9.7037,0,9.614,9.6185,9.6304,9.6387,9.641,9.6482,9.6552,9.6616,9.6652,9.6745,9.6769,9.6824,9.6912,9.695,9.7056,9.7073,9.7192,9.719,9.7169,9.7172,9.7236,9.723,9.7433,9.7463,9.7299,9.73,9.7302,0,9.622,9.6291,9.6383,9.6435,9.648,9.6562,9.6616,9.6653,9.6708,9.6796,9.685,9.6939,9.7012,9.7152,9.72,9.7283,9.7284,9.735,9.7297,9.729,9.7288,9.7284,9.7293,9.736,9.7362,9.7363,9.7364,0,9.6357,9.6377,9.6456,9.6545,9.6611,9.6681,9.675,9.6791,9.6838,9.69,9.6992,9.705,9.7161,9.725,9.7336,9.7377,9.7379,9.7381,9.7401,9.7396,9.7382,9.7393,9.7198,9.7376,9.7375,9.7374,9.7373,9.7373,9.645,9.6515,9.6591,9.668,9.6737,9.6802,9.6868,9.6914,9.6993,9.7089,9.7105,9.7204,9.7274,9.7391,9.7436,9.7513,9.7496,9.7524,9.7531,9.7538,9.7544,9.737,9.7528,9.7527,9.7527,9.7527,9.7527,0,9.6589,9.664,9.6722,9.682,9.6891,9.689,9.6967,9.7025,9.7113,9.718,9.7254,9.7361,9.7448,9.7505,9.7592,9.7643,9.7647,9.7665,9.7662,9.7672,9.7552,9.7528,9.7661,9.7661,9.7661,9.7661,9.7661,9.7661,9.667,9.6781,9.6811,9.695,9.7,9.71,9.7144,9.7204,9.7259,9.7379,9.7453,9.7491,9.7554,9.7647,9.7727,9.7741,9.7774,9.7794,9.7807,9.7694,9.768,9.7667,9.7644,9.78,9.78,9.7922,9.7923,9.7923]}]]